Tracking 29088 objects as of 13-Jul-2024
HD Live streaming from Space Station
objects crossing your sky now

COSMOS 1275 DEB

Track COSMOS 1275 DEB now!
10-day predictions


NORAD ID: 42201
Int'l Code: 1981-053TR
Perigee: 780.1 km
Apogee: 837.0 km
Inclination: 82.7 °
Period: 100.9 minutes
Semi major axis: 7179 km
RCS: Unknown
Launch date: June 4, 1981
Source: Commonwealth of Independent States (former USSR) (CIS)
Launch site: PLESETSK MISSILE AND SPACE COMPLEX (PKMTR)

Note: This is SATELLITE DEBRIS
Your satellite tracking list
Your tracking list is empty




NASA's NSSDC Master Catalog

Two Line Element Set (TLE):
1 42201U 81053TR  24185.31008245  .00006058  00000-0  24578-2 0  9996
2 42201  82.7008  41.6451 0039695 324.9764  34.8810 14.27108693 97263
Source of the keplerian elements: AFSPC